| time (UTC) | temp C | wind direction | speed KPH | gust KPH | rain 1hr cm | rain 24hr cm | rain mn cm | humidity % | barometer mb |
| 20260503235623 | 32 | 0.0 | 0.0 | 0.00 | 0.00 | 0.00 | 1 | 1009.3 | |
| 20260503232622 | 32 | 0.0 | 0.0 | 0.00 | 0.00 | 0.00 | 1 | 1009.6 | |
| 20260503225621 | 32 | 0.0 | 0.0 | 0.00 | 0.00 | 0.00 | 1 | 1010.0 | |
| 20260503222621 | 34 | 0.0 | 0.0 | 0.00 | 0.00 | 0.00 | 1 | 1010.4 | |
| 20260503215620 | 36 | 0.0 | 0.0 | 0.00 | 0.00 | 0.00 | 1 | 1010.7 | |
| 20260503212621 | 36 | 0.0 | 0.0 | 0.00 | 0.00 | 0.00 | 1 | 1011.0 | |
| 20260503205621 | 35 | 0.0 | 0.0 | 0.00 | 0.00 | 0.00 | 1 | 1011.3 | |
| 20260503202621 | 35 | 0.0 | 0.0 | 0.00 | 0.00 | 0.00 | 1 | 1011.6 | |
| 20260503195621 | 34 | 0.0 | 0.0 | 0.00 | 0.00 | 0.00 | 1 | 1011.9 | |
| 20260503192622 | 34 | 0.0 | 0.0 | 0.00 | 0.00 | 0.00 | 1 | 1012.3 | |
| 20260503185622 | 33 | 0.0 | 0.0 | 0.00 | 0.00 | 0.00 | 1 | 1012.8 | |
| 20260503182624 | 31 | 0.0 | 0.0 | 0.00 | 0.00 | 0.00 | 1 | 1013.1 | |
| 20260503175623 | 28 | 0.0 | 0.0 | 0.00 | 0.00 | 0.00 | 2 | 1013.2 | |
| 20260503172623 | 26 | 0.0 | 0.0 | 0.00 | 0.00 | 0.00 | 2 | 1013.5 | |
| 20260503072621 | 21 | 0.0 | 0.0 | 0.00 | 0.00 | 0.00 | 2 | 1013.8 | |
| 20260503052621 | 21 | 0.0 | 0.0 | 0.00 | 0.00 | 0.00 | 2 | 1013.7 | |
| 20260503045621 | 22 | 0.0 | 0.0 | 0.00 | 0.00 | 0.00 | 2 | 1013.7 | |
| 20260503042621 | 22 | 0.0 | 0.0 | 0.00 | 0.00 | 0.00 | 2 | 1013.4 | |
| 20260503035621 | 23 | 0.0 | 0.0 | 0.00 | 0.00 | 0.00 | 2 | 1013.1 | |
| 20260503032620 | 24 | 0.0 | 0.0 | 0.00 | 0.00 | 0.00 | 2 | 1012.7 | |
| 20260503025622 | 25 | 0.0 | 0.0 | 0.00 | 0.00 | 0.00 | 2 | 1012.4 | |
| 20260503022621 | 25 | 0.0 | 0.0 | 0.00 | 0.00 | 0.00 | 2 | 1012.2 | |
| 20260503015621 | 26 | 0.0 | 0.0 | 0.00 | 0.00 | 0.00 | 2 | 1012.2 | |
| 20260503012630 | 27 | 0.0 | 0.0 | 0.00 | 0.00 | 0.00 | 2 | 1012.3 | |
| 20260503005622 | 28 | 0.0 | 0.0 | 0.00 | 0.00 | 0.00 | 2 | 1012.4 | |
| 20260503002620 | 30 | 0.0 | 0.0 | 0.00 | 0.00 | 0.00 | 2 | 1012.5 |